AVR4815 SKBO-SKNV

Flight info

Callsign AVR4815
Flight time 0h 39m
Altitude 20000
Route LIXAG4U LIXAG
Aircraft A20N/M-SDE2E3FGHIRWXY/LB1

Departure

Time 2026-04-15 14:54
Airport El Dorado International Airport (SKBO)

Arrival

Time 2026-04-15 15:33
Airport Benito Salas Airport (SKNV)
Time Latitude Longitude Altitude Speed Heading
2026-04-15 14:33 4.69819 -74.14584 8365 ft 0 kts 67°
2026-04-15 14:42 4.69815 -74.14593 8365 ft 2 kts 63°
2026-04-15 14:43 4.69807 -74.14607 8365 ft 2 kts 53°
2026-04-15 14:43 4.69794 -74.14618 8366 ft 2 kts
2026-04-15 14:43 4.69778 -74.14614 8365 ft 2 kts 319°
2026-04-15 14:43 4.69767 -74.14602 8366 ft 2 kts 310°
2026-04-15 14:44 4.69756 -74.14589 8365 ft 2 kts 308°
2026-04-15 14:44 4.69746 -74.14575 8366 ft 2 kts 307°
2026-04-15 14:44 4.69736 -74.14562 8365 ft 2 kts 307°
2026-04-15 14:44 4.69726 -74.14549 8366 ft 2 kts 307°
2026-04-15 14:45 4.69719 -74.14539 8365 ft 1 kts 308°
2026-04-15 14:45 4.69715 -74.14535 8365 ft 1 kts 308°
2026-04-15 14:47 4.69722 -74.14543 8366 ft 3 kts 308°
2026-04-15 14:47 4.69745 -74.14573 8366 ft 7 kts 308°
2026-04-15 14:47 4.69769 -74.14604 8365 ft 6 kts 307°
2026-04-15 14:48 4.69800 -74.14646 8365 ft 9 kts 307°
2026-04-15 14:48 4.69846 -74.14707 8365 ft 12 kts 307°
2026-04-15 14:48 4.69901 -74.14784 8365 ft 14 kts 307°
2026-04-15 14:48 4.69936 -74.14861 8365 ft 11 kts 260°
2026-04-15 14:49 4.69878 -74.14916 8366 ft 13 kts 217°
2026-04-15 14:49 4.69866 -74.14993 8365 ft 12 kts 298°
2026-04-15 14:49 4.69923 -74.15066 8365 ft 15 kts 307°
2026-04-15 14:49 4.69990 -74.15154 8365 ft 17 kts 307°
2026-04-15 14:50 4.70066 -74.15254 8366 ft 19 kts 307°
2026-04-15 14:50 4.70151 -74.15367 8365 ft 21 kts 307°
2026-04-15 14:50 4.70245 -74.15489 8365 ft 23 kts 308°
2026-04-15 14:50 4.70344 -74.15622 8365 ft 24 kts 307°
2026-04-15 14:51 4.70448 -74.15760 8365 ft 26 kts 307°
2026-04-15 14:51 4.70559 -74.15904 8366 ft 27 kts 307°
2026-04-15 14:51 4.70674 -74.16056 8366 ft 28 kts 307°
2026-04-15 14:51 4.70790 -74.16208 8365 ft 29 kts 308°
2026-04-15 14:52 4.70911 -74.16370 8366 ft 29 kts 307°
2026-04-15 14:52 4.71034 -74.16535 8365 ft 30 kts 307°
2026-04-15 14:52 4.71158 -74.16699 8365 ft 25 kts 307°
2026-04-15 14:52 4.71191 -74.16796 8365 ft 12 kts 241°
2026-04-15 14:53 4.71123 -74.16851 8364 ft 14 kts 216°
2026-04-15 14:53 4.71035 -74.16883 8363 ft 12 kts 163°
2026-04-15 14:53 4.71014 -74.16867 8363 ft 0 kts 129°
2026-04-15 14:53 4.70922 -74.16745 8363 ft 56 kts 127°
2026-04-15 14:54 4.70558 -74.16261 8366 ft 118 kts 127°
2026-04-15 14:54 4.69945 -74.15453 8365 ft 167 kts 127°
2026-04-15 14:54 4.69183 -74.14444 8805 ft 175 kts 127°
2026-04-15 14:54 4.68450 -74.13505 9795 ft 169 kts 133°
2026-04-15 14:55 4.67418 -74.12913 10362 ft 180 kts 171°
2026-04-15 14:55 4.66128 -74.13119 10646 ft 202 kts 208°
2026-04-15 14:55 4.65115 -74.14165 10952 ft 226 kts 243°
2026-04-15 14:55 4.64651 -74.15751 11272 ft 249 kts 256°
2026-04-15 14:56 4.64118 -74.17409 12011 ft 252 kts 244°
2026-04-15 14:56 4.63224 -74.18935 12863 ft 252 kts 232°
2026-04-15 14:56 4.62131 -74.20336 13650 ft 256 kts 236°
2026-04-15 14:56 4.61373 -74.21942 14369 ft 262 kts 255°
2026-04-15 14:57 4.61013 -74.23770 14922 ft 274 kts 259°
2026-04-15 14:57 4.60610 -74.25726 15175 ft 298 kts 252°
2026-04-15 14:57 4.59749 -74.27683 15408 ft 318 kts 236°
2026-04-15 14:57 4.58337 -74.29383 16014 ft 322 kts 224°
2026-04-15 14:58 4.56727 -74.30998 16763 ft 325 kts 225°
2026-04-15 14:58 4.55150 -74.32615 17451 ft 329 kts 225°
2026-04-15 14:58 4.53543 -74.34277 18157 ft 332 kts 226°
2026-04-15 14:58 4.51842 -74.35878 18583 ft 345 kts 216°
2026-04-15 14:59 4.49719 -74.37150 18723 ft 364 kts 208°
2026-04-15 14:59 4.47430 -74.38318 18837 ft 381 kts 207°
2026-04-15 14:59 4.45030 -74.39584 19150 ft 391 kts 209°
2026-04-15 14:59 4.42664 -74.40906 19697 ft 393 kts 210°
2026-04-15 15:00 4.40314 -74.42269 19987 ft 396 kts 211°
2026-04-15 15:00 4.37947 -74.43671 20074 ft 397 kts 211°
2026-04-15 15:00 4.35552 -74.45102 20080 ft 397 kts 211°
2026-04-15 15:00 4.33170 -74.46527 20041 ft 397 kts 211°
2026-04-15 15:01 4.30827 -74.47928 20024 ft 397 kts 211°
2026-04-15 15:01 4.28455 -74.49345 20018 ft 397 kts 211°
2026-04-15 15:01 4.26123 -74.50737 20011 ft 398 kts 211°
2026-04-15 15:01 4.23719 -74.52171 19995 ft 397 kts 211°
2026-04-15 15:02 4.21358 -74.53579 19995 ft 397 kts 211°
2026-04-15 15:02 4.18974 -74.55001 19998 ft 397 kts 211°
2026-04-15 15:02 4.16577 -74.56431 19979 ft 398 kts 211°
2026-04-15 15:02 4.14187 -74.57857 19979 ft 398 kts 211°
2026-04-15 15:03 4.11795 -74.59283 19987 ft 398 kts 211°
2026-04-15 15:03 4.09443 -74.60687 19990 ft 398 kts 211°
2026-04-15 15:03 4.07054 -74.62111 19980 ft 398 kts 211°
2026-04-15 15:03 4.04694 -74.63518 19976 ft 398 kts 211°
2026-04-15 15:04 4.02302 -74.64945 19993 ft 398 kts 211°
2026-04-15 15:04 3.99946 -74.66349 19990 ft 398 kts 211°
2026-04-15 15:04 3.97550 -74.67777 19970 ft 398 kts 211°
2026-04-15 15:04 3.95183 -74.69188 19987 ft 398 kts 211°
2026-04-15 15:05 3.92802 -74.70607 19986 ft 398 kts 211°
2026-04-15 15:05 3.90414 -74.72030 19990 ft 398 kts 211°
2026-04-15 15:05 3.88027 -74.73453 19975 ft 398 kts 211°
2026-04-15 15:05 3.85675 -74.74862 19989 ft 398 kts 212°
2026-04-15 15:06 3.80992 -74.77852 19972 ft 398 kts 213°
2026-04-15 15:06 3.78668 -74.79356 19980 ft 398 kts 213°
2026-04-15 15:06 3.76352 -74.80847 19989 ft 398 kts 213°
2026-04-15 15:07 3.74007 -74.82349 19990 ft 398 kts 213°
2026-04-15 15:07 3.71688 -74.83831 19978 ft 398 kts 213°
2026-04-15 15:07 3.69352 -74.85322 19977 ft 398 kts 213°
2026-04-15 15:07 3.67014 -74.86814 19989 ft 398 kts 213°
2026-04-15 15:08 3.64669 -74.88309 19986 ft 398 kts 213°
2026-04-15 15:08 3.62323 -74.89805 19977 ft 398 kts 213°
2026-04-15 15:08 3.60015 -74.91277 19972 ft 397 kts 213°
2026-04-15 15:08 3.57693 -74.92759 19983 ft 397 kts 213°
2026-04-15 15:09 3.55345 -74.94256 19988 ft 397 kts 213°
2026-04-15 15:09 3.53025 -74.95735 19981 ft 397 kts 213°
2026-04-15 15:09 3.50709 -74.97213 19977 ft 396 kts 213°
2026-04-15 15:09 3.48382 -74.98696 19989 ft 396 kts 213°
2026-04-15 15:10 3.46044 -75.00187 19974 ft 396 kts 213°
2026-04-15 15:10 3.43734 -75.01661 19861 ft 397 kts 212°
2026-04-15 15:10 3.41399 -75.03150 19624 ft 394 kts 212°
2026-04-15 15:10 3.39089 -75.04623 19399 ft 392 kts 212°
2026-04-15 15:11 3.36814 -75.06074 19176 ft 391 kts 212°
2026-04-15 15:11 3.34521 -75.07536 18950 ft 390 kts 212°
2026-04-15 15:11 3.32244 -75.08987 18501 ft 391 kts 212°
2026-04-15 15:11 3.29914 -75.10472 17879 ft 392 kts 212°
2026-04-15 15:12 3.28395 -75.11441 17495 ft 389 kts 212°
2026-04-15 15:12 3.25374 -75.13366 16701 ft 384 kts 212°
2026-04-15 15:12 3.23864 -75.14329 16320 ft 381 kts 212°
2026-04-15 15:12 3.21650 -75.15740 15736 ft 378 kts 212°
2026-04-15 15:13 3.19427 -75.17156 15159 ft 375 kts 212°
2026-04-15 15:13 3.17214 -75.18567 14538 ft 374 kts 212°
2026-04-15 15:13 3.15052 -75.19967 13963 ft 373 kts 212°
2026-04-15 15:13 3.12168 -75.21843 13117 ft 370 kts 212°
2026-04-15 15:14 3.10711 -75.22795 12672 ft 369 kts 212°
2026-04-15 15:14 3.08584 -75.24188 12049 ft 367 kts 212°
2026-04-15 15:14 3.06382 -75.25477 11427 ft 364 kts 201°
2026-04-15 15:14 3.03945 -75.26006 10982 ft 356 kts 183°
2026-04-15 15:15 3.01525 -75.26149 10634 ft 347 kts 182°
2026-04-15 15:15 2.99155 -75.26287 10289 ft 338 kts 182°
2026-04-15 15:15 2.96833 -75.26426 9933 ft 328 kts 182°
2026-04-15 15:15 2.94607 -75.26560 9554 ft 313 kts 182°
2026-04-15 15:16 2.92463 -75.26688 9177 ft 300 kts 182°
2026-04-15 15:16 2.90450 -75.26811 8987 ft 287 kts 182°
2026-04-15 15:16 2.88429 -75.26933 8891 ft 291 kts 182°
2026-04-15 15:16 2.86423 -75.27054 8797 ft 289 kts 182°
2026-04-15 15:17 2.84417 -75.27174 8694 ft 288 kts 182°
2026-04-15 15:17 2.82422 -75.27293 8583 ft 287 kts 182°
2026-04-15 15:17 2.80412 -75.27413 8495 ft 287 kts 182°
2026-04-15 15:17 2.78430 -75.27533 8399 ft 287 kts 182°
2026-04-15 15:18 2.76410 -75.27657 8296 ft 287 kts 182°
2026-04-15 15:18 2.74444 -75.27777 8207 ft 287 kts 182°
2026-04-15 15:18 2.72455 -75.27969 8096 ft 286 kts 193°
2026-04-15 15:18 2.70663 -75.28840 7877 ft 289 kts 218°
2026-04-15 15:19 2.69451 -75.30369 7646 ft 280 kts 245°
2026-04-15 15:19 2.69068 -75.32222 7500 ft 262 kts 271°
2026-04-15 15:19 2.69242 -75.33988 7362 ft 246 kts 284°
2026-04-15 15:19 2.69968 -75.35443 7148 ft 234 kts 311°
2026-04-15 15:20 2.71259 -75.36387 6749 ft 231 kts 340°
2026-04-15 15:20 2.72824 -75.36549 6309 ft 230 kts 13°
2026-04-15 15:20 2.74349 -75.36067 5889 ft 229 kts 19°
2026-04-15 15:20 2.75856 -75.35555 5535 ft 226 kts 19°
2026-04-15 15:21 2.77328 -75.35063 5183 ft 224 kts 18°
2026-04-15 15:21 2.78797 -75.34579 4828 ft 221 kts 18°
2026-04-15 15:21 2.80250 -75.34103 4479 ft 217 kts 18°
2026-04-15 15:21 2.81684 -75.33634 4142 ft 213 kts 18°
2026-04-15 15:22 2.83045 -75.33190 3905 ft 197 kts 18°
2026-04-15 15:22 2.84276 -75.32788 3616 ft 177 kts 18°
2026-04-15 15:22 2.85393 -75.32422 3364 ft 158 kts 18°
2026-04-15 15:22 2.86369 -75.32104 3184 ft 144 kts 18°
2026-04-15 15:23 2.87323 -75.31793 2994 ft 144 kts 17°
2026-04-15 15:23 2.88268 -75.31509 2804 ft 143 kts 16°
2026-04-15 15:23 2.89135 -75.31248 2639 ft 144 kts 17°
2026-04-15 15:23 2.90103 -75.30958 2448 ft 145 kts 17°
2026-04-15 15:24 2.91062 -75.30673 2238 ft 143 kts 17°
2026-04-15 15:24 2.92004 -75.30394 2027 ft 142 kts 17°
2026-04-15 15:24 2.92946 -75.30113 1824 ft 139 kts 17°
2026-04-15 15:24 2.93851 -75.29771 1622 ft 138 kts 27°
2026-04-15 15:25 2.94746 -75.29474 1475 ft 132 kts 15°
2026-04-15 15:25 2.95621 -75.29248 1807 ft 133 kts 17°
2026-04-15 15:25 2.96536 -75.28978 2523 ft 144 kts 16°
2026-04-15 15:25 2.97560 -75.28745 3067 ft 166 kts 13°
2026-04-15 15:26 2.98763 -75.28329 3605 ft 193 kts 23°
2026-04-15 15:26 3.00143 -75.27728 3908 ft 244 kts 22°
2026-04-15 15:26 3.01798 -75.27065 3995 ft 258 kts 20°
2026-04-15 15:26 3.03439 -75.26477 3993 ft 243 kts 19°
2026-04-15 15:27 3.05003 -75.25953 3996 ft 228 kts 18°
2026-04-15 15:27 3.06494 -75.25458 3998 ft 237 kts 19°
2026-04-15 15:27 3.08039 -75.24813 3997 ft 236 kts 26°
2026-04-15 15:27 3.09494 -75.24049 3997 ft 236 kts 28°
2026-04-15 15:28 3.10939 -75.23260 3987 ft 235 kts 28°
2026-04-15 15:28 3.12379 -75.22488 3986 ft 236 kts 27°
2026-04-15 15:28 3.13788 -75.21638 3987 ft 237 kts 43°
2026-04-15 15:28 3.14668 -75.20275 3983 ft 238 kts 73°
2026-04-15 15:29 3.14732 -75.18619 3866 ft 238 kts 104°
2026-04-15 15:29 3.13957 -75.17202 3635 ft 238 kts 135°
2026-04-15 15:29 3.12502 -75.16389 3589 ft 245 kts 168°
2026-04-15 15:29 3.10823 -75.16445 3586 ft 245 kts 199°
2026-04-15 15:30 3.09418 -75.17353 3586 ft 242 kts 231°
2026-04-15 15:30 3.08601 -75.18805 3591 ft 240 kts 250°
2026-04-15 15:30 3.08047 -75.20352 3592 ft 228 kts 253°
2026-04-15 15:30 3.07584 -75.21779 3588 ft 216 kts 254°
2026-04-15 15:31 3.07111 -75.23222 3594 ft 223 kts 250°
2026-04-15 15:31 3.06397 -75.24591 3587 ft 221 kts 232°
2026-04-15 15:31 3.05192 -75.25537 3411 ft 226 kts 205°
2026-04-15 15:31 3.03756 -75.26162 3087 ft 228 kts 202°
2026-04-15 15:32 3.02306 -75.26744 2790 ft 228 kts 202°
2026-04-15 15:32 3.00826 -75.27326 2468 ft 227 kts 201°
2026-04-15 15:32 2.99412 -75.27883 2420 ft 202 kts 201°
2026-04-15 15:32 2.98188 -75.28367 2238 ft 175 kts 201°
2026-04-15 15:33 2.97133 -75.28778 2031 ft 152 kts 200°
2026-04-15 15:33 2.96142 -75.29108 1645 ft 147 kts 195°
2026-04-15 15:33 2.95185 -75.29364 1464 ft 132 kts 193°
2026-04-15 15:33 2.94593 -75.29511 1460 ft 44 kts 194°
2026-04-15 15:34 2.94454 -75.29547 1465 ft 17 kts 195°
2026-04-15 15:34 2.94338 -75.29579 1462 ft 16 kts 193°
2026-04-15 15:34 2.94269 -75.29586 1458 ft 1 kts 243°
2026-04-15 15:34 2.94271 -75.29589 1458 ft 0 kts 274°
2026-04-15 15:35 2.94273 -75.29590 1458 ft 0 kts 298°
2026-04-15 15:35 2.94280 -75.29593 1458 ft 2 kts 331°
2026-04-15 15:35 2.94298 -75.29588 1458 ft 6 kts 12°
2026-04-15 15:35 2.94361 -75.29572 1466 ft 12 kts 14°
2026-04-15 15:36 2.94457 -75.29548 1463 ft 16 kts 14°
2026-04-15 15:36 2.94576 -75.29518 1467 ft 19 kts 14°
2026-04-15 15:36 2.94636 -75.29482 1466 ft 9 kts 55°
2026-04-15 15:36 2.94668 -75.29415 1459 ft 8 kts 101°
2026-04-15 15:37 2.94697 -75.29384 1463 ft 8 kts 11°
2026-04-15 15:37 2.94763 -75.29368 1465 ft 9 kts 36°
2026-04-15 15:37 2.94763 -75.29340 1467 ft 4 kts 104°
2026-04-15 15:37 2.94758 -75.29322 1465 ft 3 kts 103°
2026-04-15 15:38 2.94758 -75.29320 1467 ft 0 kts 103°